Location: Regensburg
(48.4565°N, 10.3217°E)
Time: 23:25:39
(UTC+01:00)

ISS - Pass Details

Date: 11 February 2018
Orbit: 402 x 407 km, 51.6° (Epoch: 23 February)

Event Time Altitude Azimuth Distance (km) Brightness Sun altitude
Rises 19:24:37 0° 284° (WNW) 2,320 1.5 -18.9°
Reaches altitude 10° 19:27:18 10° 261° (W) 1,457 0.2 -19.3°
Maximum altitude 19:29:17 15° 223° (SW) 1,177 -1.0 -19.6°
Drops below altitude 10° 19:31:17 10° 185° (S) 1,452 -1.0 -20.0°
Enters shadow 19:31:38 - 180° (S) 1,545 -0.9 -20.0°
